N44CK KSFO-KAPC

Flight info

Callsign N44CK
Flight time 0h 12m
Altitude 6000
Route GAPP7 SFO SAU
Aircraft C525/L-SDFGRWY/S

Departure

Time 2026-04-21 00:21
Airport San Francisco International Airport (KSFO)

Arrival

Time 2026-04-21 00:34
Airport Napa County Airport (KAPC)
Time Latitude Longitude Altitude Speed Heading
2026-04-21 00:11 37.62602 -122.38113 21 ft 0 kts 206°
2026-04-21 00:15 37.62600 -122.38114 21 ft 1 kts 207°
2026-04-21 00:15 37.62582 -122.38126 21 ft 4 kts 205°
2026-04-21 00:16 37.62537 -122.38136 22 ft 8 kts 163°
2026-04-21 00:16 37.62494 -122.38065 22 ft 12 kts 118°
2026-04-21 00:16 37.62444 -122.37946 21 ft 18 kts 117°
2026-04-21 00:16 37.62381 -122.37795 20 ft 19 kts 118°
2026-04-21 00:17 37.62318 -122.37647 19 ft 19 kts 117°
2026-04-21 00:17 37.62256 -122.37499 17 ft 18 kts 118°
2026-04-21 00:17 37.62196 -122.37357 15 ft 18 kts 118°
2026-04-21 00:17 37.62134 -122.37211 14 ft 20 kts 116°
2026-04-21 00:18 37.62069 -122.37056 12 ft 19 kts 118°
2026-04-21 00:18 37.62007 -122.36907 11 ft 19 kts 116°
2026-04-21 00:18 37.61945 -122.36755 10 ft 21 kts 117°
2026-04-21 00:18 37.61872 -122.36583 9 ft 22 kts 118°
2026-04-21 00:19 37.61802 -122.36418 9 ft 20 kts 121°
2026-04-21 00:19 37.61737 -122.36261 8 ft 19 kts 117°
2026-04-21 00:19 37.61675 -122.36113 8 ft 20 kts 118°
2026-04-21 00:19 37.61604 -122.35945 8 ft 22 kts 118°
2026-04-21 00:20 37.61533 -122.35774 7 ft 21 kts 119°
2026-04-21 00:20 37.61464 -122.35677 7 ft 11 kts 176°
2026-04-21 00:20 37.61398 -122.35714 7 ft 11 kts 219°
2026-04-21 00:20 37.61369 -122.35753 7 ft 3 kts 298°
2026-04-21 00:21 37.61378 -122.35774 7 ft 8 kts 298°
2026-04-21 00:21 37.61572 -122.36236 8 ft 107 kts 298°
2026-04-21 00:21 37.62025 -122.37179 499 ft 137 kts 300°
2026-04-21 00:21 37.62647 -122.38289 997 ft 179 kts 299°
2026-04-21 00:22 37.63362 -122.39733 1821 ft 205 kts 294°
2026-04-21 00:22 37.63985 -122.41348 2838 ft 212 kts 288°
2026-04-21 00:22 37.64599 -122.43026 3842 ft 215 kts 288°
2026-04-21 00:22 37.65303 -122.44666 4818 ft 223 kts 303°
2026-04-21 00:23 37.66620 -122.45753 5781 ft 233 kts 330°
2026-04-21 00:23 37.68272 -122.46529 5981 ft 273 kts 338°
2026-04-21 00:23 37.70183 -122.47235 6000 ft 299 kts 341°
2026-04-21 00:23 37.72215 -122.47926 5972 ft 303 kts 342°
2026-04-21 00:24 37.74288 -122.48608 5970 ft 304 kts 342°
2026-04-21 00:24 37.76332 -122.49275 5967 ft 303 kts 343°
2026-04-21 00:24 37.78369 -122.49940 5965 ft 301 kts 343°
2026-04-21 00:24 37.80407 -122.50603 5963 ft 299 kts 343°
2026-04-21 00:25 37.82435 -122.51264 5958 ft 298 kts 343°
2026-04-21 00:25 37.84439 -122.51917 5958 ft 297 kts 343°
2026-04-21 00:25 37.86461 -122.52550 5955 ft 298 kts 346°
2026-04-21 00:25 37.88526 -122.52388 5960 ft 297 kts 19°
2026-04-21 00:26 37.90414 -122.51405 5957 ft 296 kts 27°
2026-04-21 00:26 37.92267 -122.50199 5955 ft 296 kts 31°
2026-04-21 00:26 37.94076 -122.48929 5651 ft 300 kts 32°
2026-04-21 00:26 37.95869 -122.47626 5280 ft 296 kts 32°
2026-04-21 00:27 37.97645 -122.46309 4901 ft 293 kts 32°
2026-04-21 00:27 37.99374 -122.45012 4522 ft 289 kts 33°
2026-04-21 00:27 38.01123 -122.43687 4137 ft 287 kts 33°
2026-04-21 00:27 38.02817 -122.42399 3767 ft 285 kts 32°
2026-04-21 00:28 38.04501 -122.41111 3388 ft 272 kts 32°
2026-04-21 00:28 38.06088 -122.39893 2994 ft 258 kts 32°
2026-04-21 00:28 38.07592 -122.38735 2610 ft 247 kts 32°
2026-04-21 00:28 38.09042 -122.37616 2226 ft 239 kts 32°
2026-04-21 00:29 38.10429 -122.36543 1847 ft 233 kts 32°
2026-04-21 00:29 38.11809 -122.35471 1520 ft 224 kts 32°
2026-04-21 00:29 38.13068 -122.34495 1455 ft 207 kts 33°
2026-04-21 00:29 38.14255 -122.33574 1447 ft 189 kts 33°
2026-04-21 00:30 38.15367 -122.32761 1397 ft 177 kts 30°
2026-04-21 00:30 38.16396 -122.32011 1341 ft 169 kts 32°
2026-04-21 00:30 38.17396 -122.31213 1370 ft 169 kts 32°
2026-04-21 00:30 38.18479 -122.30557 1381 ft 176 kts 20°
2026-04-21 00:31 38.19685 -122.30115 1436 ft 182 kts 11°
2026-04-21 00:31 38.20912 -122.29831 1475 ft 180 kts
2026-04-21 00:31 38.22139 -122.29522 1414 ft 173 kts 13°
2026-04-21 00:31 38.23268 -122.29199 1225 ft 163 kts 11°
2026-04-21 00:32 38.24361 -122.28934 964 ft 150 kts 12°
2026-04-21 00:32 38.25075 -122.28168 706 ft 133 kts 80°
2026-04-21 00:32 38.24708 -122.27385 552 ft 103 kts 169°
2026-04-21 00:32 38.24024 -122.27273 436 ft 96 kts 179°
2026-04-21 00:33 38.23365 -122.27314 288 ft 94 kts 194°
2026-04-21 00:33 38.22770 -122.27607 190 ft 90 kts 199°
2026-04-21 00:33 38.22185 -122.27866 44 ft 85 kts 199°
2026-04-21 00:33 38.21691 -122.28099 21 ft 62 kts 200°
2026-04-21 00:34 38.21364 -122.28258 18 ft 40 kts 201°
2026-04-21 00:34 38.21127 -122.28371 16 ft 31 kts 201°
2026-04-21 00:34 38.20983 -122.28438 15 ft 9 kts 197°
2026-04-21 00:34 38.20971 -122.28381 15 ft 9 kts 76°
2026-04-21 00:35 38.20990 -122.28279 16 ft 13 kts 78°
2026-04-21 00:35 38.21015 -122.28144 17 ft 17 kts 78°
2026-04-21 00:35 38.21046 -122.27980 20 ft 19 kts 78°
2026-04-21 00:35 38.21076 -122.27816 22 ft 18 kts 77°
2026-04-21 00:36 38.21103 -122.27670 24 ft 15 kts 77°
2026-04-21 00:36 38.21127 -122.27545 26 ft 13 kts 76°
2026-04-21 00:36 38.21151 -122.27413 28 ft 16 kts 78°
2026-04-21 00:36 38.21176 -122.27279 30 ft 13 kts 77°
2026-04-21 00:37 38.21213 -122.27238 31 ft 7 kts 331°
2026-04-21 00:37 38.21256 -122.27255 30 ft 5 kts 46°
2026-04-21 00:37 38.21277 -122.27203 31 ft 8 kts 63°
2026-04-21 00:37 38.21310 -122.27122 31 ft 11 kts 63°
2026-04-21 00:38 38.21322 -122.27067 32 ft 4 kts 127°
2026-04-21 00:38 38.21301 -122.27051 32 ft 2 kts 154°
2026-04-21 00:38 38.21275 -122.27035 32 ft 4 kts 153°
2026-04-21 00:38 38.21262 -122.27017 33 ft 1 kts 55°
2026-04-21 00:39 38.21267 -122.27008 33 ft 0 kts 62°